| time (UTC) | temp F | wind direction | speed MPH | gust MPH | rain 1hr in | rain 24hr in | rain mn in | humidity % | barometer mb |
| 20260504034536 | 55 | 315 | 9.0 | 17.0 | 0.00 | 0.00 | 0.00 | 39 | 1008.9 |
| 20260504033037 | 55 | 32 | 10.0 | 20.0 | 0.00 | 0.00 | 0.00 | 38 | 1008.7 |
| 20260504031537 | 56 | 330 | 10.0 | 16.0 | 0.00 | 0.00 | 0.00 | 38 | 1008.7 |
| 20260504030034 | 56 | 320 | 9.0 | 18.0 | 0.00 | 0.00 | 0.00 | 37 | 1008.4 |
| 20260504024533 | 56 | 336 | 8.0 | 16.0 | 0.00 | 0.00 | 0.00 | 39 | 1008.2 |
| 20260504023033 | 57 | 16 | 9.0 | 16.0 | 0.00 | 0.00 | 0.00 | 39 | 1008.2 |
| 20260504021550 | 59 | 42 | 8.0 | 16.0 | 0.00 | 0.00 | 0.00 | 37 | 1008.2 |
| 20260504020032 | 61 | 26 | 5.0 | 11.0 | 0.00 | 0.00 | 0.00 | 32 | 1008.3 |
| 20260504014532 | 63 | 15 | 5.0 | 13.0 | 0.00 | 0.00 | 0.00 | 30 | 1008.3 |
| 20260504013035 | 64 | 324 | 6.0 | 12.0 | 0.00 | 0.00 | 0.00 | 25 | 1008.5 |
| 20260504011534 | 66 | 342 | 5.0 | 13.0 | 0.00 | 0.00 | 0.00 | 23 | 1008.6 |
| 20260504010032 | 66 | 340 | 4.0 | 11.0 | 0.00 | 0.00 | 0.00 | 24 | 1008.6 |
| 20260504004539 | 67 | 338 | 7.0 | 14.0 | 0.00 | 0.00 | 0.00 | 23 | 1008.6 |
| 20260504003039 | 68 | 346 | 7.0 | 12.0 | 0.00 | 0.00 | 0.00 | 23 | 1008.8 |
| 20260504001538 | 68 | 292 | 6.0 | 12.0 | 0.00 | 0.00 | 0.00 | 24 | 1008.9 |
| 20260504000052 | 69 | 329 | 9.0 | 16.0 | 0.00 | 0.00 | 0.00 | 22 | 1009.0 |
| 20260503234533 | 70 | 9 | 8.0 | 15.0 | 0.00 | 0.00 | 0.00 | 22 | 1009.0 |
| 20260503233033 | 69 | 19 | 6.0 | 14.0 | 0.00 | 0.00 | 0.00 | 23 | 1009.2 |
| 20260503231532 | 70 | 290 | 7.0 | 13.0 | 0.00 | 0.00 | 0.00 | 22 | 1009.2 |
| 20260503230032 | 70 | 326 | 7.0 | 14.0 | 0.00 | 0.00 | 0.00 | 22 | 1009.3 |
| 20260503224530 | 70 | 348 | 6.0 | 15.0 | 0.00 | 0.00 | 0.00 | 23 | 1009.4 |
| 20260503223039 | 70 | 327 | 8.0 | 17.0 | 0.00 | 0.00 | 0.00 | 22 | 1009.4 |
| 20260503221546 | 70 | 264 | 6.0 | 15.0 | 0.00 | 0.00 | 0.00 | 22 | 1009.7 |
| 20260503220034 | 70 | 316 | 9.0 | 17.0 | 0.00 | 0.00 | 0.00 | 22 | 1009.7 |
| 20260503214533 | 70 | 313 | 6.0 | 15.0 | 0.00 | 0.00 | 0.00 | 23 | 1009.9 |
| 20260503213032 | 69 | 305 | 7.0 | 16.0 | 0.00 | 0.00 | 0.00 | 22 | 1010.1 |
| 20260503211533 | 69 | 301 | 7.0 | 17.0 | 0.00 | 0.00 | 0.00 | 24 | 1010.3 |
| 20260503210030 | 69 | 244 | 5.0 | 14.0 | 0.00 | 0.00 | 0.00 | 23 | 1010.4 |
| 20260503204529 | 69 | 290 | 5.0 | 16.0 | 0.00 | 0.00 | 0.00 | 24 | 1010.7 |
| 20260503203041 | 69 | 305 | 5.0 | 15.0 | 0.00 | 0.00 | 0.00 | 25 | 1010.7 |
| 20260503201536 | 68 | 305 | 6.0 | 16.0 | 0.00 | 0.00 | 0.00 | 23 | 1010.9 |
| 20260503200035 | 67 | 300 | 2.0 | 11.0 | 0.00 | 0.00 | 0.00 | 27 | 1011.1 |
| 20260503194534 | 67 | 344 | 8.0 | 14.0 | 0.00 | 0.00 | 0.00 | 25 | 1011.4 |
| 20260503193033 | 67 | 324 | 10.0 | 20.0 | 0.00 | 0.00 | 0.00 | 25 | 1011.7 |
| 20260503191530 | 67 | 319 | 7.0 | 16.0 | 0.00 | 0.00 | 0.00 | 29 | 1011.7 |
| 20260503190037 | 66 | 281 | 4.0 | 15.0 | 0.00 | 0.00 | 0.00 | 28 | 1011.9 |
| 20260503184533 | 64 | 317 | 3.0 | 10.0 | 0.00 | 0.00 | 0.00 | 28 | 1012.2 |
| 20260503183033 | 65 | 246 | 3.0 | 9.0 | 0.00 | 0.00 | 0.00 | 28 | 1012.3 |
| 20260503181532 | 65 | 277 | 4.0 | 14.0 | 0.00 | 0.00 | 0.00 | 28 | 1012.4 |
| 20260503180032 | 64 | 293 | 4.0 | 13.0 | 0.00 | 0.00 | 0.00 | 31 | 1012.5 |
| 20260503174534 | 65 | 309 | 6.0 | 12.0 | 0.00 | 0.00 | 0.00 | 28 | 1012.7 |
| 20260503173050 | 64 | 288 | 7.0 | 13.0 | 0.00 | 0.00 | 0.00 | 28 | 1012.9 |
| 20260503171537 | 63 | 346 | 8.0 | 15.0 | 0.00 | 0.00 | 0.00 | 29 | 1013.1 |
| 20260503081532 | 37 | 360 | 2.0 | 4.0 | 0.00 | 0.00 | 0.00 | 78 | 1015.8 |
| 20260503071531 | 39 | 342 | 2.0 | 4.0 | 0.00 | 0.00 | 0.00 | 78 | 1015.8 |
| 20260503054536 | 40 | 350 | 2.0 | 4.0 | 0.00 | 0.00 | 0.00 | 76 | 1016.1 |
| 20260503053039 | 39 | 331 | 1.0 | 3.0 | 0.00 | 0.00 | 0.00 | 79 | 1016.3 |
| 20260503051531 | 39 | 345 | 2.0 | 4.0 | 0.00 | 0.00 | 0.00 | 77 | 1016.5 |
| 20260503050035 | 40 | 291 | 2.0 | 4.0 | 0.00 | 0.00 | 0.00 | 77 | 1016.7 |
| 20260503044534 | 40 | 18 | 1.0 | 4.0 | 0.00 | 0.00 | 0.00 | 74 | 1016.5 |
| 20260503043032 | 41 | 336 | 3.0 | 4.0 | 0.00 | 0.00 | 0.00 | 71 | 1016.5 |
| 20260503041533 | 43 | 317 | 0.0 | 2.0 | 0.00 | 0.00 | 0.00 | 69 | 1016.4 |
| 20260503040037 | 45 | 339 | 0.0 | 2.0 | 0.00 | 0.00 | 0.00 | 68 | 1016.4 |